Presure
155 206 165 165 206 180 201 199 192 200 200 217 238 274 240 226 221 219 229 250 241 266 282 261 272 195 202 197 125 117 116 195 189 184 183 189 176 112 111 146 114 122 156 182
177 189 176 164 201 186 196 195 187 202 193 227 250 230 266 255 250 229 257 215 246 263 267 253 256 283 221 215 154 127 123 121 181 195 195 176 180 192 192 189 181 187 188 130
167 197 200 154 197 185 191 193 196 186 198 192 201 242 258 253 260 260 236 227 229 238 232 249 255 236 227 234 226 220 197 192 194 176 194 192 201 191 189 191 187 185 183 184
196 189 187 208 198 187 178 186 192 199 191 187 194 212 235 237 250 259 249 229 226 216 235 226 224 244 233 230 211 193 200 157 203 183 171 187 174 185 183 184 189 133 131 197
192 177 167 180 158 188 180 171 195 184 195 185 199 206 249 238 224 258 245 225 215 194 222 147 178 232 221 238 245 207 202 193 188 222 198 188 199 125 118 191 193 198 197 203
194 172 201 209 176 187 187 176 184 190 174 196 181 204 204 258 233 232 252 229 226 217 180 227 213 154 224 224 226 241 155 121 234 233 224 103 237 242 240 244 240 219 210 209
177 196 196 199 190 194 186 178 179 192 193 192 194 187 209 200 267 229 230 251 228 223 218 221 214 210 203 159 159 212 216 124 183 217 223 212 210 212 212 208 214 222 223 221
189 195 187 194 204 190 195 180 174 195 183 183 176 199 193 199 212 274 249 226 223 241 219 218 212 214 129 213 216 201 225 133 210 206 211 200 213 210 212 221 219 216 216 214
214 198 213 192 202 195 196 183 175 193 195 184 178 186 188 190 194 213 235 267 257 226 223 252 221 221 223 213 208 207 210 211 204 209 213 211 207 213 220 220 206 209 222 227
204 200 200 185 205 197 165 188 179 193 194 183 174 187 180 185 207 208 189 240 239 237 256 253 226 246 222 224 226 222 217 222 225 225 231 236 237 232 231 228 227 230 208 228
225 225 218 215 212 196 168 184 183 191 190 189 194 189 192 179 187 194 203 203 210 239 238 310 349 235 226 230 233 240 240 230 218 207 210 215 241 218 221 300 220 226 210 201
214 210 218 240 206 194 195 195 187 176 191 192 184 198 201 191 191 179 189 193 201 207 228 242 285 297 247 225 218 219 233 192 209 165 183 197 214 223 204 198 212 197 204 205
250 244 243 223 203 195 204 198 189 181 189 184 185 184 181 190 185 188 186 191 203 176 196 220 240 235 281 275 230 205 213 213 209 206 193 208 216 206 189 196 186 187 199 196
231 221 236 216 203 200 196 193 189 195 181 195 198 188 197 185 176 182 184 189 199 180 171 206 224 237 220 248 280 276 244 211 199 200 186 188 189 187 192 186 187 195 205 216
258 248 222 206 199 194 186 194 197 180 182 191 194 188 188 195 170 188 180 186 182 195 165 191 207 220 233 224 235 242 244 256 285 216 218 229 228 204 202 206 221 228 203 205
248 234 217 210 201 193 196 194 196 183 178 193 198 188 189 197 202 186 196 182 179 180 192 198 167 212 220 232 227 211 230 245 249 240 253 262 229 224 231 213 214 217 223 223
245 229 211 211 206 205 200 184 199 189 178 195 188 188 198 184 198 195 189 187 187 181 185 191 188 199 221 228 227 222 215 230 236 237 230 237 237 242 248 267 261 245 241 234
240 218 219 213 204 204 197 192 202 210 185 194 186 183 189 200 192 197 190 197 176 186 194 198 194 203 207 224 221 220 218 220 211 233 239 234 233 229 240 245 261 257 246 240
236 228 213 212 209 193 199 201 195 193 198 196 192 185 188 195 198 189 197 199 179 190 183 190 201 195 203 217 225 219 215 221 217 231 227 225 217 232 227 230 244 241 229 230
232 224 219 214 204 201 196 186 193 180 181 184 199 187 178 188 193 194 186 204 195 175 178 192 196 195 197 210 213 215 208 215 218 217 226 217 223 218 228 238 174 185 213 236
236 166 221 213 210 199 200 199 175 199 181 192 111 194 187 185 188 191 198 194 174 182 178 180 198 191 196 205 205 213 204 213 216 217 210 221 215 224 198 239 233 211 222 243
240 228 218 222 203 209 197 194 191 197 184 134 190 201 198 189 186 185 194 193 191 164 175 198 194 190 201 204 202 214 211 210 213 220 213 214 214 218 228 231 230 214 249 237
235 223 220 222 210 207 207 201 202 95 215 182 189 203 208 198 191 195 194 195 189 184 197 192 202 192 195 205 200 204 210 207 206 213 218 216 220 215 223 227 233 232 253 243
229 192 222 218 212 206 200 201 205 201 199 198 203 210 209 184 206 193 183 192 188 190 196 194 201 192 194 207 203 214 207 208 217 217 221 217 221 216 206 198 237 248 255 252
221 226 217 218 210 211 205 206 201 199 190 206 208 204 207 204 207 188 199 181 179 196 191 200 196 206 208 211 204 212 202 220 217 222 221 215 222 216 209 229 241 261 252 235
169 218 221 210 219 213 201 204 208 204 206 210 206 203 205 203 209 207 204 200 200 204 204 163 211 209 212 204 211 212 203 217 214 221 218 222 218 218 222 229 255 252 239 251
Wind_Speed
44 44 36 39 34 35 31 27 33 33 30 30 20 11 17 19 19 19 22 26 16 14 14 25 28 56 65 69 38 33 31 78 79 80 83 91 75 32 36 55 42 45 62 78
48 48 44 42 31 35 32 29 32 30 29 36 22 16 10 8 25 26 21 17 10 8 14 24 32 25 61 63 42 38 36 35 68 88 80 75 84 90 88 84 78 80 81 50
46 46 42 46 33 33 29 30 28 26 29 27 25 18 14 9 12 15 21 19 19 14 22 21 26 40 50 46 63 76 84 82 87 62 85 83 90 91 85 86 83 83 80 83
47 46 49 38 35 33 31 29 27 32 32 22 21 27 14 12 10 10 16 18 17 20 20 25 30 33 42 51 71 74 84 46 82 71 49 63 63 77 77 78 83 53 55 91
55 49 43 43 39 34 32 32 26 30 30 29 24 22 15 9 6 14 17 16 16 21 21 20 22 26 37 35 40 76 83 83 76 68 83 80 85 43 44 88 89 91 91 83
56 51 44 42 43 36 34 30 26 26 28 31 18 22 15 11 10 9 16 20 22 21 22 24 23 24 28 31 34 31 31 33 54 60 58 29 53 50 56 60 66 75 80 82
54 48 48 45 39 39 33 33 31 27 24 27 28 19 18 13 8 9 10 20 23 25 24 26 24 26 28 31 32 39 38 38 40 44 45 52 56 59 61 65 65 65 65 67
61 53 54 52 43 41 38 35 31 28 28 29 21 25 17 15 17 12 9 11 17 26 26 28 26 30 37 33 35 33 37 42 44 45 48 51 54 56 61 61 64 63 65 68
76 62 68 53 48 43 42 38 31 29 23 30 27 27 22 18 17 23 16 14 9 17 21 28 35 36 38 36 33 35 39 43 46 50 56 57 55 59 58 61 61 64 70 72
72 63 63 53 52 41 42 42 33 31 26 29 29 24 23 20 20 19 14 15 12 15 21 27 29 33 37 38 44 47 47 47 46 47 50 54 55 53 54 53 53 54 61 59
77 64 59 59 48 46 35 42 35 31 30 26 19 24 24 24 22 19 20 19 22 23 20 27 26 28 31 31 40 43 41 36 36 36 37 40 40 40 41 40 43 43 56 67
62 58 64 54 53 51 49 44 37 38 34 29 30 21 20 27 25 21 20 18 19 18 29 23 21 15 27 28 35 35 32 30 34 35 42 40 36 32 38 36 44 59 65 65
76 68 57 60 54 51 47 44 45 44 35 35 32 33 31 23 29 26 21 21 20 23 23 29 24 18 15 23 31 34 34 33 40 44 42 45 36 39 44 46 65 63 67 66
66 58 57 58 52 51 48 51 48 44 34 39 36 35 26 28 29 31 29 25 24 22 27 30 31 24 20 16 18 26 34 36 39 40 48 50 52 52 55 62 66 70 74 75
61 58 65 64 58 53 55 51 49 38 43 37 40 35 36 30 29 35 32 30 28 28 29 27 30 36 30 25 22 19 19 21 26 46 52 52 52 57 62 63 67 68 70 74
63 66 72 69 65 58 60 52 47 44 46 41 41 36 40 33 30 35 32 30 35 31 33 31 33 35 40 38 32 31 32 30 29 30 29 36 47 51 53 63 65 68 69 70
68 74 74 70 67 63 57 48 49 46 47 43 43 42 40 40 34 34 37 35 36 35 34 35 34 38 43 38 37 37 38 34 36 38 39 40 42 41 43 47 53 63 66 70
73 76 80 73 71 62 52 53 49 43 49 47 47 45 43 41 38 36 41 36 36 41 38 38 40 41 43 43 40 39 42 40 40 39 40 43 44 48 48 50 48 54 59 64
80 81 79 76 72 53 51 56 49 48 47 50 51 45 45 45 43 39 43 44 37 42 40 41 43 46 49 51 44 43 46 46 49 46 46 47 49 52 54 55 50 51 58 63
87 82 85 80 68 64 63 57 58 46 50 50 52 52 44 46 46 45 43 47 45 35 41 43 46 48 53 55 54 51 52 53 54 52 52 54 55 57 58 58 56 59 65 70
84 54 83 79 73 63 67 66 46 58 50 59 20 55 50 48 47 48 49 48 37 44 41 44 47 50 55 58 59 59 57 58 58 57 58 58 60 62 62 61 63 63 68 73
88 87 79 83 66 71 66 68 55 62 53 28 57 56 56 53 51 48 50 52 53 38 44 53 51 52 56 60 62 66 62 61 63 64 63 64 66 67 69 68 70 72 73 75
84 81 80 80 74 74 77 75 70 15 69 53 56 57 55 59 58 56 52 54 54 54 57 55 61 56 59 65 63 67 66 66 67 69 70 70 71 71 74 76 78 79 70 70
87 65 82 78 79 73 71 70 71 70 66 64 65 65 61 46 62 58 52 57 55 56 56 59 62 60 64 71 68 70 68 69 72 74 76 76 77 76 74 72 84 78 73 72
84 90 79 81 77 78 70 74 70 68 58 74 70 59 59 61 63 54 63 52 51 61 59 65 63 71 73 71 70 71 68 76 77 81 79 79 82 80 80 91 89 78 79 79
32 85 87 76 84 78 69 75 75 72 73 74 68 64 64 62 65 67 65 64 66 67 69 46 71 72 73 73 74 73 72 80 80 84 83 84 85 85 88 92 85 82 86 84
Wind_Direction
271 293 287 286 302 299 306 319 317 322 330 337 347 211 218 243 233 226 239 249 257 264 252 216 226 211 219 219 249 263 264 230 235 238 241 242 253 258 263 261 269 274 267 269
280 287 282 284 297 299 308 308 307 322 327 349 346 343 286 233 231 248 241 223 258 277 213 208 214 223 214 220 238 253 259 263 240 235 237 246 250 247 249 255 262 266 267 271
273 285 288 280 286 289 300 306 314 314 318 329 337 337 321 288 260 242 213 219 211 198 206 200 207 213 222 224 219 218 224 230 234 246 240 243 242 247 251 256 260 265 269 271
281 277 281 283 277 284 290 299 308 318 314 329 329 343 327 325 286 237 215 225 212 204 199 197 207 215 220 223 220 226 226 249 235 249 256 255 259 256 259 262 262 269 273 270
276 272 267 278 278 279 280 287 302 302 311 309 322 343 308 313 323 267 234 250 237 203 219 249 222 225 213 219 229 228 228 234 240 243 244 252 254 264 272 258 259 263 264 266
273 265 272 268 271 271 276 282 293 295 296 307 302 331 353 302 276 256 238 233 239 243 232 223 236 266 218 226 225 237 254 271 236 242 250 293 258 261 263 265 263 260 261 264
258 273 269 268 264 262 266 275 283 291 296 300 308 305 339 352 312 269 261 238 233 242 246 246 240 245 246 261 253 226 234 269 254 247 256 253 255 256 257 261 262 263 265 268
261 267 261 261 256 261 264 270 277 284 278 285 280 307 308 334 359 304 241 247 264 239 250 256 253 249 256 247 247 245 245 271 253 255 255 260 263 266 270 270 272 275 274 274
262 260 266 257 251 254 258 262 271 276 281 278 283 295 304 324 332 348 357 338 270 270 266 250 251 254 252 254 257 261 262 260 261 262 260 261 268 270 272 272 280 281 280 278
260 254 255 252 246 251 265 256 263 268 270 268 274 287 286 297 331 326 310 350 326 316 307 270 259 253 261 260 253 252 257 261 266 269 272 271 271 273 277 280 279 280 277 279
258 256 260 250 241 244 255 252 256 264 266 266 276 278 286 296 303 319 342 339 337 350 334 337 287 248 256 257 263 262 262 268 268 265 272 278 276 280 293 297 288 278 273 274
249 244 252 246 234 241 243 247 251 259 261 265 264 267 268 279 288 282 305 308 333 342 351 350 342 287 255 256 264 273 272 261 266 270 281 287 283 289 250 254 279 263 266 273
257 254 236 225 233 240 245 246 247 251 259 262 263 263 272 273 285 288 294 302 326 279 318 343 347 326 300 271 261 268 267 264 258 266 270 272 266 258 264 257 273 284 281 291
238 236 222 224 227 229 237 242 242 249 256 266 266 264 263 267 280 287 292 296 311 289 284 329 341 333 314 318 299 274 262 265 270 260 269 271 271 279 270 278 282 285 283 281
231 223 217 223 228 229 238 240 244 247 252 259 260 260 266 268 273 277 286 300 292 304 267 311 333 336 327 317 316 311 299 285 295 260 260 257 260 266 267 267 269 269 277 280
213 210 218 220 225 229 231 239 242 243 252 259 264 259 262 270 271 273 277 280 288 293 301 310 266 336 329 324 315 304 313 310 298 286 283 278 270 272 270 271 272 272 274 276
206 208 222 220 223 225 225 235 237 238 250 255 256 258 265 267 268 268 272 284 285 290 295 299 300 312 330 323 320 315 308 317 309 303 294 289 286 284 289 291 282 280 282 283
205 211 215 217 225 225 224 233 237 244 244 249 251 256 261 266 264 271 271 276 281 287 292 307 304 315 321 324 317 313 309 308 302 306 302 299 299 296 299 302 296 293 290 289
205 205 217 218 223 231 226 231 230 235 245 249 250 254 259 265 269 268 276 279 280 285 293 301 310 306 316 324 320 314 311 314 312 315 311 309 304 307 303 306 306 303 292 291
205 209 212 219 226 225 230 232 234 240 243 249 254 252 260 264 270 273 275 284 281 284 290 298 305 306 310 319 320 316 312 316 315 314 315 310 310 308 309 303 294 294 298 302
206 214 212 219 221 229 228 234 249 235 242 247 245 251 256 264 268 271 274 278 282 286 288 293 301 301 308 314 314 314 309 313 315 313 308 312 308 310 302 311 306 300 300 302
205 211 215 216 224 222 230 237 241 240 244 249 252 254 255 261 266 271 273 276 281 284 289 297 298 299 308 309 310 314 309 310 312 313 309 308 307 309 313 312 308 304 302 303
210 215 217 216 220 224 228 233 238 249 243 256 255 257 260 259 263 267 272 276 281 288 291 296 299 300 305 307 305 306 309 308 306 310 311 309 310 309 314 313 309 307 303 301
210 219 218 219 222 227 232 237 240 245 249 252 257 262 263 268 268 270 273 275 280 286 290 293 297 300 301 304 304 307 304 305 311 312 311 310 312 311 306 304 310 306 303 301
215 216 223 219 225 227 234 237 242 246 253 255 256 261 264 265 268 270 272 281 285 287 291 295 296 298 300 301 301 304 300 313 312 311 310 310 310 308 306 310 309 304 304 304
205 218 221 228 225 227 235 238 241 246 250 254 257 260 263 265 268 270 274 279 283 289 292 294 296 297 299 298 302 305 303 312 309 309 308 308 308 307 309 309 305 303 305 303